Back to catalog

AYAME 1

ECS 1

AliveCommunicationsHEO
NORAD 11261·PAYLOAD·🇯🇵 Japan

Launched Feb 6, 1979 from Tanegashima Space Center

Loading…

Next Passes (next 24 hours)

TLE

FreshSource: Space-Track

Epoch: Sep 14, 2026, 06:19 UTC

1 11261U 79009A   26257.26355091 -.00000100  00000-0  00000-0 0  9991
2 11261   9.4721 298.9946 3677525 151.6505 256.9933  1.68584184177660

Track AYAME 1 in real time with AllMySat

Download on the App Store